When you browse on this site, cookies collect data to enhance your experience and personalize the content and advertising you see.
Visit our Privacy Policy to learn more. By continuing to use the site, you agree to this use of cookies and data.
  • In Hungary
  • List of Countries
  • For 7 days
  • Water Temperature
  • Weather Map
  • News
  • Weather Widgets
  • user-avatar
    Login

    Hourly Weather Beroun

    Today, 26 February, Wednesday

    Time Temperature Precipitation Wind Pressure Humidity
    00:00 +4°C° 0 mm 4 mps 725 mmHg 82%
    01:00 +3°C° 0 mm 5 mps 724 mmHg 84%
    02:00 +3°C° 0 mm 5 mps 723 mmHg 82%
    03:00 +3°C° 0 mm 5 mps 723 mmHg 81%
    04:00 +4°C° 0 mm 4 mps 723 mmHg 80%
    05:00 +3°C° 0 mm 4 mps 723 mmHg 80%
    06:00 +2°C° 0 mm 5 mps 723 mmHg 79%
    07:00 +2°C° 0 mm 5 mps 723 mmHg 81%
    08:00 +2°C° 0 mm 6 mps 723 mmHg 75%
    09:00 +2°C° 0 mm 7 mps 723 mmHg 68%
    10:00 +2°C° 0 mm 8 mps 724 mmHg 61%
    11:00 +2°C° 0 mm 8 mps 724 mmHg 58%
    12:00 +4°C° 0 mm 8 mps 723 mmHg 54%
    13:00 +4°C° 0 mm 7 mps 724 mmHg 50%
    14:00 +4°C° 0.1 mm 7 mps 724 mmHg 53%
    15:00 +3°C° 0.1 mm 7 mps 724 mmHg 56%
    16:00 +3°C° 0.1 mm 7 mps 724 mmHg 59%
    17:00 +2°C° 0.1 mm 7 mps 725 mmHg 66%
    18:00 +2°C° 0.1 mm 6 mps 726 mmHg 72%
    19:00 +1°C° 0.1 mm 6 mps 727 mmHg 79%
    20:00 0°C° 0 mm 5 mps 727 mmHg 79%
    21:00 0°C° 0 mm 5 mps 728 mmHg 79%
    22:00 0°C° 0 mm 4 mps 728 mmHg 79%
    23:00 0°C° 0 mm 5 mps 728 mmHg 79%

    Tomorrow, 27 February, Thursday

    Time Temperature Precipitation Wind Pressure Humidity
    00:00 0°C° 0 mm 5 mps 729 mmHg 79%
    01:00 0°C° 0 mm 5 mps 729 mmHg 79%
    02:00 -1°C° 0 mm 5 mps 729 mmHg 79%
    03:00 -1°C° 0 mm 5 mps 730 mmHg 80%
    04:00 -1°C° 0 mm 5 mps 730 mmHg 80%
    05:00 -1°C° 0 mm 5 mps 730 mmHg 81%
    06:00 -1°C° 0 mm 5 mps 731 mmHg 82%
    07:00 -1°C° 0 mm 5 mps 731 mmHg 82%
    08:00 -1°C° 0 mm 5 mps 731 mmHg 77%
    09:00 0°C° 0 mm 5 mps 731 mmHg 71%
    10:00 +1°C° 0 mm 5 mps 731 mmHg 65%
    11:00 +2°C° 0.1 mm 6 mps 731 mmHg 63%
    12:00 +3°C° 0.1 mm 6 mps 730 mmHg 60%
    13:00 +3°C° 0.1 mm 6 mps 730 mmHg 57%
    14:00 +3°C° 0 mm 5 mps 729 mmHg 58%
    15:00 +4°C° 0 mm 4 mps 728 mmHg 58%
    16:00 +4°C° 0 mm 3 mps 727 mmHg 58%
    17:00 +3°C° 0 mm 3 mps 726 mmHg 62%
    18:00 +3°C° 0 mm 3 mps 725 mmHg 65%
    19:00 +3°C° 0 mm 2 mps 724 mmHg 68%
    20:00 +2°C° 0.5 mm 3 mps 723 mmHg 76%
    21:00 +1°C° 0.5 mm 3 mps 722 mmHg 84%
    22:00 -1°C° 0.5 mm 4 mps 721 mmHg 91%
    23:00 -1°C° 2.4 mm 4 mps 721 mmHg 94%

    Day after tomorrow, 28 February, Friday

    Time Temperature Precipitation Wind Pressure Humidity
    00:00 -1°C° 2.4 mm 5 mps 722 mmHg 96%
    01:00 -1°C° 2.4 mm 5 mps 723 mmHg 98%
    02:00 -1°C° 0.7 mm 5 mps 724 mmHg 97%
    03:00 -2°C° 0.7 mm 6 mps 726 mmHg 95%
    04:00 -2°C° 0.7 mm 6 mps 728 mmHg 94%
    05:00 -2°C° 0.1 mm 6 mps 730 mmHg 92%
    06:00 -2°C° 0.1 mm 5 mps 731 mmHg 91%
    07:00 -2°C° 0.1 mm 4 mps 732 mmHg 89%
    08:00 -1°C° 0 mm 5 mps 734 mmHg 87%
    09:00 -2°C° 0 mm 6 mps 735 mmHg 84%
    10:00 -1°C° 0 mm 7 mps 736 mmHg 81%
    11:00 -1°C° 0.1 mm 7 mps 737 mmHg 81%
    12:00 0°C° 0.1 mm 7 mps 737 mmHg 80%
    13:00 0°C° 0.1 mm 7 mps 738 mmHg 80%
    14:00 +1°C° 0 mm 6 mps 738 mmHg 79%
    15:00 +1°C° 0 mm 6 mps 738 mmHg 79%
    16:00 +1°C° 0 mm 5 mps 738 mmHg 78%
    17:00 0°C° 0 mm 4 mps 738 mmHg 81%
    18:00 -1°C° 0 mm 4 mps 738 mmHg 84%
    19:00 -1°C° 0 mm 3 mps 738 mmHg 87%
    20:00 -1°C° 0 mm 3 mps 738 mmHg 88%
    21:00 -1°C° 0 mm 2 mps 738 mmHg 88%
    22:00 -1°C° 0 mm 2 mps 738 mmHg 89%
    23:00 -1°C° 0 mm 2 mps 737 mmHg 88%

    29 February, Saturday

    Time Temperature Precipitation Wind Pressure Humidity
    00:00 -1°C° 0 mm 2 mps 737 mmHg 87%
    01:00 -1°C° 0 mm 2 mps 736 mmHg 86%
    02:00 -1°C° 0.1 mm 2 mps 736 mmHg 88%
    03:00 -1°C° 0.1 mm 3 mps 735 mmHg 90%
    04:00 0°C° 0.1 mm 3 mps 734 mmHg 91%
    05:00 0°C° 0.3 mm 3 mps 734 mmHg 93%
    06:00 0°C° 0.3 mm 3 mps 733 mmHg 95%
    07:00 0°C° 0.3 mm 3 mps 733 mmHg 96%
    08:00 +1°C° 0 mm 3 mps 732 mmHg 95%
    09:00 +2°C° 0 mm 3 mps 732 mmHg 93%
    10:00 +2°C° 0 mm 3 mps 731 mmHg 92%
    11:00 +3°C° 0.1 mm 3 mps 731 mmHg 92%
    12:00 +4°C° 0.1 mm 2 mps 730 mmHg 92%
    13:00 +5°C° 0.1 mm 2 mps 729 mmHg 92%
    14:00 +5°C° 0 mm 2 mps 729 mmHg 91%
    15:00 +6°C° 0 mm 2 mps 728 mmHg 91%
    16:00 +6°C° 0 mm 2 mps 727 mmHg 90%
    17:00 +6°C° 0 mm 2 mps 727 mmHg 90%
    18:00 +6°C° 0 mm 1 mps 727 mmHg 90%
    19:00 +5°C° 0 mm 1 mps 727 mmHg 89%
    20:00 +4°C° 0 mm 2 mps 727 mmHg 89%
    21:00 +4°C° 0 mm 2 mps 727 mmHg 88%
    22:00 +4°C° 0 mm 2 mps 727 mmHg 87%
    23:00 +4°C° 0.4 mm 3 mps 727 mmHg 89%

    1 March, Sunday

    Time Temperature Precipitation Wind Pressure Humidity
    00:00 +4°C° 0.4 mm 3 mps 727 mmHg 91%
    01:00 +4°C° 0.4 mm 3 mps 727 mmHg 92%
    02:00 +4°C° 0.4 mm 3 mps 727 mmHg 93%
    03:00 +4°C° 0.4 mm 3 mps 728 mmHg 93%
    04:00 +4°C° 0.4 mm 3 mps 728 mmHg 93%
    05:00 +4°C° 0 mm 3 mps 728 mmHg 90%
    06:00 +3°C° 0 mm 3 mps 728 mmHg 87%
    07:00 +1°C° 0 mm 4 mps 728 mmHg 84%
    08:00 +3°C° 0 mm 4 mps 729 mmHg 79%
    09:00 +3°C° 0 mm 5 mps 729 mmHg 75%
    10:00 +4°C° 0 mm 6 mps 729 mmHg 70%
    11:00 +5°C° 0 mm 6 mps 729 mmHg 67%
    12:00 +5°C° 0 mm 7 mps 729 mmHg 65%
    13:00 +5°C° 0 mm 7 mps 729 mmHg 63%
    14:00 +5°C° 0 mm 6 mps 729 mmHg 63%
    15:00 +6°C° 0 mm 5 mps 729 mmHg 63%
    16:00 +5°C° 0 mm 5 mps 729 mmHg 64%
    17:00 +4°C° 0 mm 4 mps 729 mmHg 69%
    18:00 +3°C° 0 mm 4 mps 729 mmHg 74%
    19:00 +2°C° 0 mm 3 mps 730 mmHg 79%
    20:00 +2°C° 0 mm 3 mps 730 mmHg 80%
    21:00 +2°C° 0 mm 3 mps 730 mmHg 81%
    22:00 +1°C° 0 mm 3 mps 730 mmHg 82%
    23:00 +1°C° 0 mm 3 mps 730 mmHg 83%

    2 March, Monday

    Time Temperature Precipitation Wind Pressure Humidity
    00:00 +1°C° 0 mm 3 mps 730 mmHg 84%
    01:00 +1°C° 0 mm 3 mps 730 mmHg 85%
    02:00 +1°C° 0 mm 3 mps 730 mmHg 86%
    03:00 +1°C° 0 mm 3 mps 730 mmHg 87%
    04:00 +1°C° 0 mm 3 mps 729 mmHg 87%
    05:00 0°C° 0 mm 3 mps 729 mmHg 88%
    06:00 0°C° 0 mm 3 mps 729 mmHg 89%
    07:00 0°C° 0 mm 3 mps 729 mmHg 90%
    08:00 +2°C° 0 mm 3 mps 729 mmHg 86%
    09:00 +3°C° 0 mm 4 mps 730 mmHg 82%
    10:00 +4°C° 0 mm 4 mps 730 mmHg 78%
    11:00 +5°C° 0 mm 4 mps 729 mmHg 74%
    12:00 +7°C° 0 mm 3 mps 729 mmHg 71%
    13:00 +8°C° 0 mm 3 mps 728 mmHg 68%
    14:00 +8°C° 0 mm 3 mps 728 mmHg 68%
    15:00 +8°C° 0 mm 3 mps 728 mmHg 67%
    16:00 +9°C° 0 mm 2 mps 727 mmHg 67%
    17:00 +7°C° 0 mm 2 mps 727 mmHg 72%
    18:00 +7°C° 0 mm 1 mps 727 mmHg 77%
    19:00 +5°C° 0 mm 0 mps 727 mmHg 81%
    20:00 +4°C° 0 mm 0 mps 727 mmHg 82%
    21:00 +5°C° 0 mm 1 mps 727 mmHg 82%
    22:00 +5°C° 0 mm 1 mps 727 mmHg 82%
    23:00 +5°C° 0 mm 1 mps 727 mmHg 84%
    Show more